Find OneWeb SL0623

NORAD ID: 55164 Int'l Des: 2023-004 Owner: ONEWEBN Country: UK Constellation: oneweb operational
LEOCIRCULARPOLARONEWEB_TYPE

当前视图

正在加载3D地球...

About OneWeb SL0623

OneWeb SL0623 (NORAD 55164) is a oneweb constellation satellite launched Jan 10, 2023 by ONEWEBN of UK. It operates in LEO, CIRCULAR, POLAR, ONEWEB_TYPE orbit with a mass of 148.00 kg.

关于 OneWeb SL0623

正在加载描述...

即将过境

Passes for default location (London). Set your location on the main map for personalized predictions.

高度历史

Loading altitude history...

两行轨道根数

1 55164U 23004AA 26171.43528149 .00000034 00000-0 53659-4 0 9992
2 55164 87.9129 5.2323 0002461 75.4612 284.6792 13.17649545168011
Epoch: Jun 20, 2026 • Age: 26 hours

当前状态

高度 1195.0 km
速度 7.26 km/s
星下点 9.98°N, 84.49°W
发射日期 Jan 10, 2023
运行时间 3.4 years
类型 internet

技术详情

分类 Payload
质量 148.00 kg
干质量 140.00 kg
总质量 148.00 kg
长度 1.30 m
直径 1.00 m
跨度 5.00 m
形状 Trapezoid+2 pan
制造商 ONEWUS
平台类型 ARROW
阶段状态 In Orbit
所有者/国家 ONEWEBN/UK

Most Searched